Volver al catálogo

STARLINK-35999

ActivoComunicacionesVLEO
NORAD 66951·PAYLOAD·🇺🇸 United States

Lanzado Dec 7, 2025 desde Vandenberg Space Force Base

Loading…

Próximos Pases (próximas 24 horas)

TLE

ActualizadoSource: CelesTrak SupGP

Época: Sep 15, 2026, 03:17 UTC

1 66951C 25286AC  26258.13729167 -.00047648  00000+0 -14079-2 0  2580
2 66951  53.1580 194.8599 0001399  82.4514 259.9604 15.34412450    17

Sigue STARLINK-35999 en tiempo real con AllMySat

Download on the App Store